Location: Bathurst
(33.4193°S, 149.5775°E)
Time: 20:17:51
(UTC+11:00)

ISS - Pass Details

Date: 25 January 2021
Orbit: 417 x 422 km, 51.6° (Epoch: 28 February)

Event Time Altitude Azimuth Distance (km) Brightness Sun altitude
Exits shadow 05:24:40 15° 288° (WNW) 1,225 -2.0 -10.5°
Maximum altitude 05:27:09 42° 220° (SW) 621 -3.0 -10.1°
Drops below altitude 10° 05:30:26 10° 147° (SSE) 1,521 0.2 -9.5°
Sets 05:32:37 0° 140° (SE) 2,391 1.7 -9.1°
